Year,Month,Day,Hour,Minute,Value (Times are PST for insolation in W/m^2)
2010,09,02,00,00,0.00
2010,09,02,00,01,0.00
2010,09,02,00,02,0.00
2010,09,02,00,03,0.00
2010,09,02,00,04,0.00
2010,09,02,00,05,0.00
2010,09,02,00,06,0.00
2010,09,02,00,07,0.00
2010,09,02,00,08,0.00
2010,09,02,00,09,0.00
2010,09,02,00,10,0.00
2010,09,02,00,11,0.00
2010,09,02,00,12,0.00
2010,09,02,00,13,0.00
2010,09,02,00,14,0.00
2010,09,02,00,15,0.00
2010,09,02,00,16,0.00
2010,09,02,00,17,0.00
2010,09,02,00,18,0.00
2010,09,02,00,19,0.00
2010,09,02,00,20,0.00
2010,09,02,00,21,0.00
2010,09,02,00,22,0.00
2010,09,02,00,23,0.00
2010,09,02,00,24,0.00
2010,09,02,00,25,0.00
2010,09,02,00,26,0.00
2010,09,02,00,27,0.00
2010,09,02,00,28,0.00
2010,09,02,00,29,0.00
2010,09,02,00,30,0.00
2010,09,02,00,31,0.00
2010,09,02,00,32,0.00
2010,09,02,00,33,0.00
2010,09,02,00,34,0.00
2010,09,02,00,35,0.00
2010,09,02,00,36,0.00
2010,09,02,00,37,0.00
2010,09,02,00,38,0.00
2010,09,02,00,39,0.00
2010,09,02,00,40,0.00
2010,09,02,00,41,0.00
2010,09,02,00,42,0.00
2010,09,02,00,43,0.00
2010,09,02,00,44,0.00
2010,09,02,00,45,0.00
2010,09,02,00,46,0.00
2010,09,02,00,47,0.00
2010,09,02,00,48,0.00
2010,09,02,00,49,0.00
2010,09,02,00,50,0.00
2010,09,02,00,51,0.00
2010,09,02,00,52,0.00
2010,09,02,00,53,0.00
2010,09,02,00,54,0.00
2010,09,02,00,55,0.00
2010,09,02,00,56,0.00
2010,09,02,00,57,0.00
2010,09,02,00,58,0.00
2010,09,02,00,59,0.00
2010,09,02,01,00,0.00
2010,09,02,01,01,0.00
2010,09,02,01,02,0.00
2010,09,02,01,03,0.00
2010,09,02,01,04,0.00
2010,09,02,01,05,0.00
2010,09,02,01,06,0.00
2010,09,02,01,07,0.00
2010,09,02,01,08,0.00
2010,09,02,01,09,0.00
2010,09,02,01,10,0.00
2010,09,02,01,11,0.00
2010,09,02,01,12,0.00
2010,09,02,01,13,0.00
2010,09,02,01,14,0.00
2010,09,02,01,15,0.00
2010,09,02,01,16,0.00
2010,09,02,01,17,0.00
2010,09,02,01,18,0.00
2010,09,02,01,19,0.00
2010,09,02,01,20,0.00
2010,09,02,01,21,0.00
2010,09,02,01,22,0.00
2010,09,02,01,23,0.00
2010,09,02,01,24,0.00
2010,09,02,01,25,0.00
2010,09,02,01,26,0.00
2010,09,02,01,27,0.00
2010,09,02,01,28,0.00
2010,09,02,01,29,0.00
2010,09,02,01,30,0.00
2010,09,02,01,31,0.00
2010,09,02,01,32,0.00
2010,09,02,01,33,0.00
2010,09,02,01,34,0.00
2010,09,02,01,35,0.00
2010,09,02,01,36,0.00
2010,09,02,01,37,0.00
2010,09,02,01,38,0.00
2010,09,02,01,39,0.00
2010,09,02,01,40,0.00
2010,09,02,01,41,0.00
2010,09,02,01,42,0.00
2010,09,02,01,43,0.00
2010,09,02,01,44,0.00
2010,09,02,01,45,0.00
2010,09,02,01,46,0.00
2010,09,02,01,47,0.00
2010,09,02,01,48,0.00
2010,09,02,01,49,0.00
2010,09,02,01,50,0.00
2010,09,02,01,51,0.00
2010,09,02,01,52,0.00
2010,09,02,01,53,0.00
2010,09,02,01,54,0.00
2010,09,02,01,55,0.00
2010,09,02,01,56,0.00
2010,09,02,01,57,0.00
2010,09,02,01,58,0.00
2010,09,02,01,59,0.00
2010,09,02,02,00,0.00
2010,09,02,02,01,0.00
2010,09,02,02,02,0.00
2010,09,02,02,03,0.00
2010,09,02,02,04,0.00
2010,09,02,02,05,0.00
2010,09,02,02,06,0.00
2010,09,02,02,07,0.00
2010,09,02,02,08,0.00
2010,09,02,02,09,0.00
2010,09,02,02,10,0.00
2010,09,02,02,11,0.00
2010,09,02,02,12,0.00
2010,09,02,02,13,0.00
2010,09,02,02,14,0.00
2010,09,02,02,15,0.00
2010,09,02,02,16,0.00
2010,09,02,02,17,0.00
2010,09,02,02,18,0.00
2010,09,02,02,19,0.00
2010,09,02,02,20,0.00
2010,09,02,02,21,0.00
2010,09,02,02,22,0.00
2010,09,02,02,23,0.00
2010,09,02,02,24,0.00
2010,09,02,02,25,0.00
2010,09,02,02,26,0.00
2010,09,02,02,27,0.00
2010,09,02,02,28,0.00
2010,09,02,02,29,0.00
2010,09,02,02,30,0.00
2010,09,02,02,31,0.00
2010,09,02,02,32,0.00
2010,09,02,02,33,0.00
2010,09,02,02,34,0.00
2010,09,02,02,35,0.00
2010,09,02,02,36,0.00
2010,09,02,02,37,0.00
2010,09,02,02,38,0.00
2010,09,02,02,39,0.00
2010,09,02,02,40,0.00
2010,09,02,02,41,0.00
2010,09,02,02,42,0.00
2010,09,02,02,43,0.00
2010,09,02,02,44,0.00
2010,09,02,02,45,0.00
2010,09,02,02,46,0.00
2010,09,02,02,47,0.00
2010,09,02,02,48,0.00
2010,09,02,02,49,0.00
2010,09,02,02,50,0.00
2010,09,02,02,51,0.00
2010,09,02,02,52,0.00
2010,09,02,02,53,0.00
2010,09,02,02,54,0.00
2010,09,02,02,55,0.00
2010,09,02,02,56,0.00
2010,09,02,02,57,0.00
2010,09,02,02,58,0.00
2010,09,02,02,59,0.00
2010,09,02,03,00,0.00
2010,09,02,03,01,0.00
2010,09,02,03,02,0.00
2010,09,02,03,03,0.00
2010,09,02,03,04,0.00
2010,09,02,03,05,0.00
2010,09,02,03,06,0.00
2010,09,02,03,07,0.00
2010,09,02,03,08,0.00
2010,09,02,03,09,0.00
2010,09,02,03,10,0.00
2010,09,02,03,11,0.00
2010,09,02,03,12,0.00
2010,09,02,03,13,0.00
2010,09,02,03,14,0.00
2010,09,02,03,15,0.00
2010,09,02,03,16,0.00
2010,09,02,03,17,0.00
2010,09,02,03,18,0.00
2010,09,02,03,19,0.00
2010,09,02,03,20,0.00
2010,09,02,03,21,0.00
2010,09,02,03,22,0.00
2010,09,02,03,23,0.00
2010,09,02,03,24,0.00
2010,09,02,03,25,0.00
2010,09,02,03,26,0.00
2010,09,02,03,27,0.00
2010,09,02,03,28,0.00
2010,09,02,03,29,0.00
2010,09,02,03,30,0.00
2010,09,02,03,31,0.00
2010,09,02,03,32,0.00
2010,09,02,03,33,0.00
2010,09,02,03,34,0.00
2010,09,02,03,35,0.00
2010,09,02,03,36,0.00
2010,09,02,03,37,0.00
2010,09,02,03,38,0.00
2010,09,02,03,39,0.00
2010,09,02,03,40,0.00
2010,09,02,03,41,0.00
2010,09,02,03,42,0.00
2010,09,02,03,43,0.00
2010,09,02,03,44,0.00
2010,09,02,03,45,0.00
2010,09,02,03,46,0.00
2010,09,02,03,47,0.00
2010,09,02,03,48,0.00
2010,09,02,03,49,0.00
2010,09,02,03,50,0.00
2010,09,02,03,51,0.00
2010,09,02,03,52,0.00
2010,09,02,03,53,0.00
2010,09,02,03,54,0.00
2010,09,02,03,55,0.00
2010,09,02,03,56,0.00
2010,09,02,03,57,0.00
2010,09,02,03,58,0.00
2010,09,02,03,59,0.00
2010,09,02,04,00,0.00
2010,09,02,04,01,0.00
2010,09,02,04,02,0.00
2010,09,02,04,03,0.00
2010,09,02,04,04,0.00
2010,09,02,04,05,0.00
2010,09,02,04,06,0.00
2010,09,02,04,07,0.00
2010,09,02,04,08,0.00
2010,09,02,04,09,0.00
2010,09,02,04,10,0.00
2010,09,02,04,11,0.00
2010,09,02,04,12,0.00
2010,09,02,04,13,0.00
2010,09,02,04,14,0.00
2010,09,02,04,15,0.00
2010,09,02,04,16,0.00
2010,09,02,04,17,0.00
2010,09,02,04,18,0.00
2010,09,02,04,19,0.00
2010,09,02,04,20,0.00
2010,09,02,04,21,0.00
2010,09,02,04,22,0.00
2010,09,02,04,23,0.00
2010,09,02,04,24,0.00
2010,09,02,04,25,0.00
2010,09,02,04,26,0.00
2010,09,02,04,27,0.00
2010,09,02,04,28,0.00
2010,09,02,04,29,0.00
2010,09,02,04,30,0.00
2010,09,02,04,31,0.00
2010,09,02,04,32,0.00
2010,09,02,04,33,0.00
2010,09,02,04,34,0.00
2010,09,02,04,35,0.00
2010,09,02,04,36,0.00
2010,09,02,04,37,0.00
2010,09,02,04,38,0.00
2010,09,02,04,39,0.00
2010,09,02,04,40,0.00
2010,09,02,04,41,0.00
2010,09,02,04,42,0.00
2010,09,02,04,43,0.00
2010,09,02,04,44,0.00
2010,09,02,04,45,0.00
2010,09,02,04,46,0.00
2010,09,02,04,47,0.00
2010,09,02,04,48,0.00
2010,09,02,04,49,0.00
2010,09,02,04,50,0.00
2010,09,02,04,51,0.00
2010,09,02,04,52,0.00
2010,09,02,04,53,0.00
2010,09,02,04,54,0.00
2010,09,02,04,55,0.00
2010,09,02,04,56,0.00
2010,09,02,04,57,0.00
2010,09,02,04,58,0.00
2010,09,02,04,59,0.00
2010,09,02,05,00,0.00
2010,09,02,05,01,0.00
2010,09,02,05,02,0.00
2010,09,02,05,03,0.00
2010,09,02,05,04,0.00
2010,09,02,05,05,0.00
2010,09,02,05,06,0.00
2010,09,02,05,07,0.00
2010,09,02,05,08,0.00
2010,09,02,05,09,0.00
2010,09,02,05,10,0.00
2010,09,02,05,11,0.00
2010,09,02,05,12,0.00
2010,09,02,05,13,0.00
2010,09,02,05,14,0.00
2010,09,02,05,15,0.00
2010,09,02,05,16,0.00
2010,09,02,05,17,0.00
2010,09,02,05,18,0.00
2010,09,02,05,19,0.00
2010,09,02,05,20,0.00
2010,09,02,05,21,0.00
2010,09,02,05,22,0.00
2010,09,02,05,23,0.00
2010,09,02,05,24,0.00
2010,09,02,05,25,0.00
2010,09,02,05,26,0.00
2010,09,02,05,27,0.00
2010,09,02,05,28,0.00
2010,09,02,05,29,0.00
2010,09,02,05,30,0.00
2010,09,02,05,31,0.00
2010,09,02,05,32,0.00
2010,09,02,05,33,0.00
2010,09,02,05,34,0.00
2010,09,02,05,35,0.00
2010,09,02,05,36,0.00
2010,09,02,05,37,0.00
2010,09,02,05,38,0.00
2010,09,02,05,39,0.00
2010,09,02,05,40,0.00
2010,09,02,05,41,0.00
2010,09,02,05,42,0.00
2010,09,02,05,43,0.00
2010,09,02,05,44,0.00
2010,09,02,05,45,0.00
2010,09,02,05,46,0.00
2010,09,02,05,47,0.00
2010,09,02,05,48,0.00
2010,09,02,05,49,0.00
2010,09,02,05,50,0.00
2010,09,02,05,51,0.00
2010,09,02,05,52,0.00
2010,09,02,05,53,0.00
2010,09,02,05,54,0.00
2010,09,02,05,55,0.00
2010,09,02,05,56,0.00
2010,09,02,05,57,0.00
2010,09,02,05,58,0.00
2010,09,02,05,59,0.00
2010,09,02,06,00,0.00
2010,09,02,06,01,0.00
2010,09,02,06,02,0.00
2010,09,02,06,03,0.00
2010,09,02,06,04,0.00
2010,09,02,06,05,0.00
2010,09,02,06,06,0.00
2010,09,02,06,07,0.00
2010,09,02,06,08,0.00
2010,09,02,06,09,0.00
2010,09,02,06,10,0.00
2010,09,02,06,11,0.00
2010,09,02,06,12,0.00
2010,09,02,06,13,0.00
2010,09,02,06,14,0.00
2010,09,02,06,15,0.00
2010,09,02,06,16,0.00
2010,09,02,06,17,0.00
2010,09,02,06,18,0.00
2010,09,02,06,19,0.00
2010,09,02,06,20,0.00
2010,09,02,06,21,0.00
2010,09,02,06,22,0.00
2010,09,02,06,23,0.00
2010,09,02,06,24,0.00
2010,09,02,06,25,0.00
2010,09,02,06,26,0.00
2010,09,02,06,27,2.40
2010,09,02,06,28,5.00
2010,09,02,06,29,5.00
2010,09,02,06,30,5.00
2010,09,02,06,31,5.00
2010,09,02,06,32,5.00
2010,09,02,06,33,6.50
2010,09,02,06,34,7.00
2010,09,02,06,35,7.00
2010,09,02,06,36,8.70
2010,09,02,06,37,9.00
2010,09,02,06,38,10.80
2010,09,02,06,39,11.00
2010,09,02,06,40,11.10
2010,09,02,06,41,12.00
2010,09,02,06,42,12.00
2010,09,02,06,43,12.30
2010,09,02,06,44,14.00
2010,09,02,06,45,14.60
2010,09,02,06,46,16.00
2010,09,02,06,47,16.00
2010,09,02,06,48,16.80
2010,09,02,06,49,18.00
2010,09,02,06,50,18.50
2010,09,02,06,51,19.00
2010,09,02,06,52,19.00
2010,09,02,06,53,19.00
2010,09,02,06,54,20.30
2010,09,02,06,55,21.00
2010,09,02,06,56,21.00
2010,09,02,06,57,22.50
2010,09,02,06,58,23.00
2010,09,02,06,59,24.70
2010,09,02,07,00,25.90
2010,09,02,07,01,26.00
2010,09,02,07,02,26.00
2010,09,02,07,03,28.20
2010,09,02,07,04,32.30
2010,09,02,07,05,35.30
2010,09,02,07,06,37.30
2010,09,02,07,07,39.20
2010,09,02,07,08,40.50
2010,09,02,07,09,42.00
2010,09,02,07,10,42.70
2010,09,02,07,11,45.30
2010,09,02,07,12,47.80
2010,09,02,07,13,49.90
2010,09,02,07,14,52.60
2010,09,02,07,15,56.30
2010,09,02,07,16,60.50
2010,09,02,07,17,62.70
2010,09,02,07,18,62.30
2010,09,02,07,19,50.90
2010,09,02,07,20,50.20
2010,09,02,07,21,52.60
2010,09,02,07,22,51.30
2010,09,02,07,23,52.80
2010,09,02,07,24,53.90
2010,09,02,07,25,54.00
2010,09,02,07,26,62.90
2010,09,02,07,27,62.30
2010,09,02,07,28,64.50
2010,09,02,07,29,63.60
2010,09,02,07,30,72.90
2010,09,02,07,31,84.50
2010,09,02,07,32,85.40
2010,09,02,07,33,86.20
2010,09,02,07,34,90.40
2010,09,02,07,35,91.80
2010,09,02,07,36,96.50
2010,09,02,07,37,101.10
2010,09,02,07,38,100.90
2010,09,02,07,39,101.30
2010,09,02,07,40,106.40
2010,09,02,07,41,113.80
2010,09,02,07,42,117.50
2010,09,02,07,43,123.50
2010,09,02,07,44,132.60
2010,09,02,07,45,136.70
2010,09,02,07,46,140.60
2010,09,02,07,47,143.90
2010,09,02,07,48,146.00
2010,09,02,07,49,149.20
2010,09,02,07,50,153.30
2010,09,02,07,51,156.90
2010,09,02,07,52,162.60
2010,09,02,07,53,165.80
2010,09,02,07,54,169.80
2010,09,02,07,55,173.20
2010,09,02,07,56,177.10
2010,09,02,07,57,180.60
2010,09,02,07,58,184.40
2010,09,02,07,59,187.90
2010,09,02,08,00,190.00
2010,09,02,08,01,183.10
2010,09,02,08,02,172.30
2010,09,02,08,03,176.20
2010,09,02,08,04,185.90
2010,09,02,08,05,188.00
2010,09,02,08,06,188.00
2010,09,02,08,07,189.70
2010,09,02,08,08,185.80
2010,09,02,08,09,192.20
2010,09,02,08,10,198.70
2010,09,02,08,11,206.00
2010,09,02,08,12,212.80
2010,09,02,08,13,210.20
2010,09,02,08,14,220.20
2010,09,02,08,15,221.00
2010,09,02,08,16,223.80
2010,09,02,08,17,233.10
2010,09,02,08,18,234.70
2010,09,02,08,19,233.50
2010,09,02,08,20,232.20
2010,09,02,08,21,228.40
2010,09,02,08,22,225.50
2010,09,02,08,23,220.50
2010,09,02,08,24,220.60
2010,09,02,08,25,221.00
2010,09,02,08,26,223.60
2010,09,02,08,27,232.50
2010,09,02,08,28,238.20
2010,09,02,08,29,250.10
2010,09,02,08,30,229.40
2010,09,02,08,31,223.30
2010,09,02,08,32,204.10
2010,09,02,08,33,188.70
2010,09,02,08,34,186.00
2010,09,02,08,35,188.30
2010,09,02,08,36,196.30
2010,09,02,08,37,207.60
2010,09,02,08,38,211.00
2010,09,02,08,39,216.30
2010,09,02,08,40,236.20
2010,09,02,08,41,237.60
2010,09,02,08,42,237.90
2010,09,02,08,43,240.40
2010,09,02,08,44,248.00
2010,09,02,08,45,242.80
2010,09,02,08,46,224.90
2010,09,02,08,47,220.80
2010,09,02,08,48,230.00
2010,09,02,08,49,224.90
2010,09,02,08,50,233.30
2010,09,02,08,51,254.50
2010,09,02,08,52,289.20
2010,09,02,08,53,300.40
2010,09,02,08,54,295.90
2010,09,02,08,55,301.00
2010,09,02,08,56,299.30
2010,09,02,08,57,325.00
2010,09,02,08,58,319.90
2010,09,02,08,59,355.40
2010,09,02,09,00,360.30
2010,09,02,09,01,367.80
2010,09,02,09,02,372.50
2010,09,02,09,03,370.50
2010,09,02,09,04,348.00
2010,09,02,09,05,351.90
2010,09,02,09,06,360.30
2010,09,02,09,07,367.90
2010,09,02,09,08,379.30
2010,09,02,09,09,389.50
2010,09,02,09,10,380.40
2010,09,02,09,11,367.80
2010,09,02,09,12,361.90
2010,09,02,09,13,354.80
2010,09,02,09,14,372.90
2010,09,02,09,15,380.80
2010,09,02,09,16,390.30
2010,09,02,09,17,393.80
2010,09,02,09,18,392.20
2010,09,02,09,19,388.20
2010,09,02,09,20,397.00
2010,09,02,09,21,403.00
2010,09,02,09,22,403.30
2010,09,02,09,23,407.10
2010,09,02,09,24,414.10
2010,09,02,09,25,418.80
2010,09,02,09,26,423.20
2010,09,02,09,27,428.20
2010,09,02,09,28,431.40
2010,09,02,09,29,431.60
2010,09,02,09,30,424.30
2010,09,02,09,31,419.70
2010,09,02,09,32,426.00
2010,09,02,09,33,444.40
2010,09,02,09,34,458.30
2010,09,02,09,35,459.00
2010,09,02,09,36,410.40
2010,09,02,09,37,413.10
2010,09,02,09,38,437.00
2010,09,02,09,39,439.40
2010,09,02,09,40,458.40
2010,09,02,09,41,462.00
2010,09,02,09,42,470.50
2010,09,02,09,43,473.00
2010,09,02,09,44,476.10
2010,09,02,09,45,478.40
2010,09,02,09,46,482.50
2010,09,02,09,47,486.10
2010,09,02,09,48,491.50
2010,09,02,09,49,480.70
2010,09,02,09,50,443.70
2010,09,02,09,51,442.30
2010,09,02,09,52,425.00
2010,09,02,09,53,436.90
2010,09,02,09,54,446.10
2010,09,02,09,55,449.70
2010,09,02,09,56,419.50
2010,09,02,09,57,380.00
2010,09,02,09,58,373.60
2010,09,02,09,59,376.60
2010,09,02,10,00,421.00
2010,09,02,10,01,437.60
2010,09,02,10,02,479.60
2010,09,02,10,03,487.00
2010,09,02,10,04,477.10
2010,09,02,10,05,504.40
2010,09,02,10,06,513.00
2010,09,02,10,07,506.30
2010,09,02,10,08,509.10
2010,09,02,10,09,486.30
2010,09,02,10,10,501.30
2010,09,02,10,11,486.60
2010,09,02,10,12,476.60
2010,09,02,10,13,458.30
2010,09,02,10,14,482.70
2010,09,02,10,15,529.70
2010,09,02,10,16,546.80
2010,09,02,10,17,549.60
2010,09,02,10,18,550.70
2010,09,02,10,19,547.60
2010,09,02,10,20,549.60
2010,09,02,10,21,557.20
2010,09,02,10,22,560.40
2010,09,02,10,23,559.50
2010,09,02,10,24,550.80
2010,09,02,10,25,555.20
2010,09,02,10,26,557.00
2010,09,02,10,27,562.10
2010,09,02,10,28,563.00
2010,09,02,10,29,561.00
2010,09,02,10,30,559.10
2010,09,02,10,31,560.60
2010,09,02,10,32,557.00
2010,09,02,10,33,557.00
2010,09,02,10,34,555.50
2010,09,02,10,35,550.50
2010,09,02,10,36,551.40
2010,09,02,10,37,550.00
2010,09,02,10,38,550.80
2010,09,02,10,39,554.00
2010,09,02,10,40,558.00
2010,09,02,10,41,561.10
2010,09,02,10,42,561.80
2010,09,02,10,43,563.90
2010,09,02,10,44,555.90
2010,09,02,10,45,513.70
2010,09,02,10,46,506.60
2010,09,02,10,47,512.40
2010,09,02,10,48,508.80
2010,09,02,10,49,524.10
2010,09,02,10,50,528.70
2010,09,02,10,51,553.60
2010,09,02,10,52,555.00
2010,09,02,10,53,558.80
2010,09,02,10,54,554.70
2010,09,02,10,55,552.00
2010,09,02,10,56,553.50
2010,09,02,10,57,561.90
2010,09,02,10,58,574.80
2010,09,02,10,59,582.70
2010,09,02,11,00,595.70
2010,09,02,11,01,612.80
2010,09,02,11,02,625.20
2010,09,02,11,03,636.50
2010,09,02,11,04,646.20
2010,09,02,11,05,650.00
2010,09,02,11,06,650.00
2010,09,02,11,07,649.40
2010,09,02,11,08,653.80
2010,09,02,11,09,656.70
2010,09,02,11,10,656.20
2010,09,02,11,11,661.90
2010,09,02,11,12,663.00
2010,09,02,11,13,659.40
2010,09,02,11,14,621.00
2010,09,02,11,15,605.70
2010,09,02,11,16,620.60
2010,09,02,11,17,651.00
2010,09,02,11,18,666.30
2010,09,02,11,19,657.90
2010,09,02,11,20,665.50
2010,09,02,11,21,668.40
2010,09,02,11,22,642.80
2010,09,02,11,23,600.00
2010,09,02,11,24,561.60
2010,09,02,11,25,570.30
2010,09,02,11,26,550.90
2010,09,02,11,27,563.10
2010,09,02,11,28,563.70
2010,09,02,11,29,541.80
2010,09,02,11,30,529.20
2010,09,02,11,31,491.40
2010,09,02,11,32,507.40
2010,09,02,11,33,519.00
2010,09,02,11,34,524.90
2010,09,02,11,35,558.40
2010,09,02,11,36,588.40
2010,09,02,11,37,598.60
2010,09,02,11,38,584.00
2010,09,02,11,39,607.10
2010,09,02,11,40,622.30
2010,09,02,11,41,598.20
2010,09,02,11,42,649.10
2010,09,02,11,43,638.20
2010,09,02,11,44,552.70
2010,09,02,11,45,508.80
2010,09,02,11,46,481.90
2010,09,02,11,47,480.60
2010,09,02,11,48,467.00
2010,09,02,11,49,476.00
2010,09,02,11,50,476.00
2010,09,02,11,51,476.00
2010,09,02,11,52,535.40
2010,09,02,11,53,548.30
2010,09,02,11,54,519.60
2010,09,02,11,55,505.60
2010,09,02,11,56,459.60
2010,09,02,11,57,457.30
2010,09,02,11,58,519.80
2010,09,02,11,59,572.60
2010,09,02,12,00,500.10
2010,09,02,12,01,439.10
2010,09,02,12,02,404.10
2010,09,02,12,03,405.60
2010,09,02,12,04,399.40
2010,09,02,12,05,410.60
2010,09,02,12,06,443.20
2010,09,02,12,07,456.80
2010,09,02,12,08,485.60
2010,09,02,12,09,509.80
2010,09,02,12,10,511.20
2010,09,02,12,11,519.80
2010,09,02,12,12,542.60
2010,09,02,12,13,564.70
2010,09,02,12,14,616.80
2010,09,02,12,15,684.90
2010,09,02,12,16,664.70
2010,09,02,12,17,640.50
2010,09,02,12,18,673.20
2010,09,02,12,19,691.90
2010,09,02,12,20,678.00
2010,09,02,12,21,679.50
2010,09,02,12,22,735.50
2010,09,02,12,23,793.30
2010,09,02,12,24,749.00
2010,09,02,12,25,735.20
2010,09,02,12,26,739.70
2010,09,02,12,27,756.80
2010,09,02,12,28,772.20
2010,09,02,12,29,769.40
2010,09,02,12,30,745.40
2010,09,02,12,31,722.80
2010,09,02,12,32,738.40
2010,09,02,12,33,754.40
2010,09,02,12,34,762.80
2010,09,02,12,35,769.00
2010,09,02,12,36,773.70
2010,09,02,12,37,774.70
2010,09,02,12,38,772.40
2010,09,02,12,39,773.90
2010,09,02,12,40,778.40
2010,09,02,12,41,786.60
2010,09,02,12,42,794.50
2010,09,02,12,43,796.00
2010,09,02,12,44,677.90
2010,09,02,12,45,618.40
2010,09,02,12,46,613.00
2010,09,02,12,47,765.00
2010,09,02,12,48,795.80
2010,09,02,12,49,792.10
2010,09,02,12,50,784.30
2010,09,02,12,51,785.60
2010,09,02,12,52,782.90
2010,09,02,12,53,777.20
2010,09,02,12,54,769.30
2010,09,02,12,55,763.90
2010,09,02,12,56,768.30
2010,09,02,12,57,773.30
2010,09,02,12,58,772.50
2010,09,02,12,59,753.20
2010,09,02,13,00,741.80
2010,09,02,13,01,753.80
2010,09,02,13,02,744.60
2010,09,02,13,03,741.20
2010,09,02,13,04,735.90
2010,09,02,13,05,716.40
2010,09,02,13,06,680.80
2010,09,02,13,07,700.10
2010,09,02,13,08,713.80
2010,09,02,13,09,701.70
2010,09,02,13,10,722.00
2010,09,02,13,11,712.20
2010,09,02,13,12,711.90
2010,09,02,13,13,688.20
2010,09,02,13,14,701.50
2010,09,02,13,15,712.50
2010,09,02,13,16,732.50
2010,09,02,13,17,729.50
2010,09,02,13,18,735.20
2010,09,02,13,19,750.30
2010,09,02,13,20,746.90
2010,09,02,13,21,743.10
2010,09,02,13,22,745.50
2010,09,02,13,23,745.20
2010,09,02,13,24,740.90
2010,09,02,13,25,750.80
2010,09,02,13,26,769.60
2010,09,02,13,27,763.20
2010,09,02,13,28,746.20
2010,09,02,13,29,775.70
2010,09,02,13,30,785.40
2010,09,02,13,31,787.80
2010,09,02,13,32,780.40
2010,09,02,13,33,768.00
2010,09,02,13,34,763.50
2010,09,02,13,35,769.30
2010,09,02,13,36,747.80
2010,09,02,13,37,763.80
2010,09,02,13,38,768.80
2010,09,02,13,39,772.00
2010,09,02,13,40,770.70
2010,09,02,13,41,769.80
2010,09,02,13,42,774.50
2010,09,02,13,43,777.80
2010,09,02,13,44,777.10
2010,09,02,13,45,775.00
2010,09,02,13,46,773.80
2010,09,02,13,47,773.00
2010,09,02,13,48,774.30
2010,09,02,13,49,772.90
2010,09,02,13,50,770.50
2010,09,02,13,51,767.00
2010,09,02,13,52,771.10
2010,09,02,13,53,768.60
2010,09,02,13,54,768.00
2010,09,02,13,55,766.20
2010,09,02,13,56,765.00
2010,09,02,13,57,768.10
2010,09,02,13,58,769.50
2010,09,02,13,59,765.20
2010,09,02,14,00,765.00
2010,09,02,14,01,760.40
2010,09,02,14,02,758.30
2010,09,02,14,03,760.30
2010,09,02,14,04,763.00
2010,09,02,14,05,761.40
2010,09,02,14,06,754.80
2010,09,02,14,07,758.50
2010,09,02,14,08,768.00
2010,09,02,14,09,766.80
2010,09,02,14,10,766.00
2010,09,02,14,11,765.40
2010,09,02,14,12,763.60
2010,09,02,14,13,761.50
2010,09,02,14,14,759.40
2010,09,02,14,15,759.00
2010,09,02,14,16,754.80
2010,09,02,14,17,755.80
2010,09,02,14,18,756.00
2010,09,02,14,19,753.70
2010,09,02,14,20,745.30
2010,09,02,14,21,751.10
2010,09,02,14,22,752.60
2010,09,02,14,23,755.40
2010,09,02,14,24,751.40
2010,09,02,14,25,749.80
2010,09,02,14,26,749.90
2010,09,02,14,27,748.30
2010,09,02,14,28,753.30
2010,09,02,14,29,752.80
2010,09,02,14,30,751.60
2010,09,02,14,31,750.00
2010,09,02,14,32,752.70
2010,09,02,14,33,755.20
2010,09,02,14,34,753.60
2010,09,02,14,35,751.30
2010,09,02,14,36,753.10
2010,09,02,14,37,757.20
2010,09,02,14,38,758.00
2010,09,02,14,39,758.80
2010,09,02,14,40,765.30
2010,09,02,14,41,703.00
2010,09,02,14,42,596.00
2010,09,02,14,43,603.40
2010,09,02,14,44,744.00
2010,09,02,14,45,747.90
2010,09,02,14,46,769.20
2010,09,02,14,47,761.60
2010,09,02,14,48,732.10
2010,09,02,14,49,697.30
2010,09,02,14,50,696.80
2010,09,02,14,51,690.20
2010,09,02,14,52,698.90
2010,09,02,14,53,709.10
2010,09,02,14,54,703.80
2010,09,02,14,55,678.60
2010,09,02,14,56,675.00
2010,09,02,14,57,677.50
2010,09,02,14,58,638.10
2010,09,02,14,59,615.10
2010,09,02,15,00,606.70
2010,09,02,15,01,605.00
2010,09,02,15,02,605.00
2010,09,02,15,03,570.10
2010,09,02,15,04,592.50
2010,09,02,15,05,595.90
2010,09,02,15,06,595.50
2010,09,02,15,07,585.70
2010,09,02,15,08,593.70
2010,09,02,15,09,601.90
2010,09,02,15,10,596.00
2010,09,02,15,11,597.80
2010,09,02,15,12,605.60
2010,09,02,15,13,611.30
2010,09,02,15,14,616.60
2010,09,02,15,15,626.30
2010,09,02,15,16,629.20
2010,09,02,15,17,611.80
2010,09,02,15,18,583.80
2010,09,02,15,19,603.90
2010,09,02,15,20,626.60
2010,09,02,15,21,607.10
2010,09,02,15,22,599.80
2010,09,02,15,23,641.30
2010,09,02,15,24,606.50
2010,09,02,15,25,600.50
2010,09,02,15,26,625.20
2010,09,02,15,27,610.90
2010,09,02,15,28,575.00
2010,09,02,15,29,568.30
2010,09,02,15,30,535.40
2010,09,02,15,31,508.50
2010,09,02,15,32,477.40
2010,09,02,15,33,410.20
2010,09,02,15,34,405.00
2010,09,02,15,35,410.10
2010,09,02,15,36,467.30
2010,09,02,15,37,458.60
2010,09,02,15,38,445.60
2010,09,02,15,39,437.40
2010,09,02,15,40,433.70
2010,09,02,15,41,469.30
2010,09,02,15,42,492.00
2010,09,02,15,43,506.50
2010,09,02,15,44,553.50
2010,09,02,15,45,558.90
2010,09,02,15,46,555.00
2010,09,02,15,47,558.40
2010,09,02,15,48,559.00
2010,09,02,15,49,617.20
2010,09,02,15,50,608.80
2010,09,02,15,51,598.00
2010,09,02,15,52,583.10
2010,09,02,15,53,569.90
2010,09,02,15,54,529.10
2010,09,02,15,55,535.80
2010,09,02,15,56,518.50
2010,09,02,15,57,511.20
2010,09,02,15,58,501.60
2010,09,02,15,59,496.10
2010,09,02,16,00,501.30
2010,09,02,16,01,483.00
2010,09,02,16,02,431.60
2010,09,02,16,03,423.20
2010,09,02,16,04,458.90
2010,09,02,16,05,466.10
2010,09,02,16,06,449.00
2010,09,02,16,07,448.80
2010,09,02,16,08,482.00
2010,09,02,16,09,464.80
2010,09,02,16,10,501.60
2010,09,02,16,11,510.00
2010,09,02,16,12,524.30
2010,09,02,16,13,526.00
2010,09,02,16,14,519.30
2010,09,02,16,15,590.90
2010,09,02,16,16,588.50
2010,09,02,16,17,582.30
2010,09,02,16,18,566.70
2010,09,02,16,19,544.70
2010,09,02,16,20,576.80
2010,09,02,16,21,553.50
2010,09,02,16,22,524.90
2010,09,02,16,23,508.20
2010,09,02,16,24,523.20
2010,09,02,16,25,528.00
2010,09,02,16,26,550.60
2010,09,02,16,27,570.00
2010,09,02,16,28,574.60
2010,09,02,16,29,584.90
2010,09,02,16,30,593.80
2010,09,02,16,31,593.10
2010,09,02,16,32,560.40
2010,09,02,16,33,518.30
2010,09,02,16,34,506.60
2010,09,02,16,35,435.30
2010,09,02,16,36,427.00
2010,09,02,16,37,418.00
2010,09,02,16,38,424.70
2010,09,02,16,39,543.20
2010,09,02,16,40,512.30
2010,09,02,16,41,434.00
2010,09,02,16,42,377.60
2010,09,02,16,43,193.80
2010,09,02,16,44,183.70
2010,09,02,16,45,181.60
2010,09,02,16,46,181.60
2010,09,02,16,47,197.50
2010,09,02,16,48,252.20
2010,09,02,16,49,290.10
2010,09,02,16,50,331.40
2010,09,02,16,51,406.80
2010,09,02,16,52,400.10
2010,09,02,16,53,317.80
2010,09,02,16,54,290.00
2010,09,02,16,55,185.80
2010,09,02,16,56,152.40
2010,09,02,16,57,146.80
2010,09,02,16,58,142.40
2010,09,02,16,59,139.30
2010,09,02,17,00,137.10
2010,09,02,17,01,133.90
2010,09,02,17,02,132.00
2010,09,02,17,03,132.50
2010,09,02,17,04,138.20
2010,09,02,17,05,155.00
2010,09,02,17,06,196.10
2010,09,02,17,07,335.90
2010,09,02,17,08,412.40
2010,09,02,17,09,446.40
2010,09,02,17,10,449.50
2010,09,02,17,11,447.60